Time,TemperatureF,DewpointF,PressureIn,WindDirection,WindDirectionDegrees,WindSpeedMPH,WindSpeedGustMPH,Humidity,HourlyPrecipIn,Conditions,Clouds,dailyrainin,SoftwareType,DateUTC
2013-06-08 00:13:00,75.7,74.0,29.86,WSW,255,9.0,13.0,94,0.00,,,0.00,weatherlink.com 1.10,2013-06-08 04:13:00,
2013-06-08 00:28:00,75.7,74.0,29.86,WSW,254,4.0,12.0,94,0.00,,,0.00,weatherlink.com 1.10,2013-06-08 04:28:00,
2013-06-08 00:43:00,75.7,74.0,29.86,SW,228,9.0,15.0,94,0.00,,,0.00,weatherlink.com 1.10,2013-06-08 04:43:00,
2013-06-08 00:58:00,75.9,74.0,29.87,SW,223,7.0,13.0,93,0.00,,,0.00,weatherlink.com 1.10,2013-06-08 04:58:00,
2013-06-08 01:13:00,76.0,74.0,29.86,West,269,15.0,15.0,93,0.00,,,0.00,weatherlink.com 1.10,2013-06-08 05:13:00,
2013-06-08 01:28:00,76.0,74.0,29.87,WSW,245,10.0,15.0,93,0.00,,,0.00,weatherlink.com 1.10,2013-06-08 05:28:00,
2013-06-08 01:43:00,76.0,74.0,29.87,West,273,7.0,17.0,93,0.00,,,0.00,weatherlink.com 1.10,2013-06-08 05:43:00,
2013-06-08 01:58:00,75.9,74.0,29.86,WSW,244,11.0,17.0,93,0.00,,,0.00,weatherlink.com 1.10,2013-06-08 05:58:00,
2013-06-08 02:13:00,76.0,74.0,29.87,WSW,244,16.0,21.0,93,0.00,,,0.00,weatherlink.com 1.10,2013-06-08 06:13:00,
2013-06-08 02:28:00,76.1,74.0,29.87,WSW,252,13.0,18.0,93,0.00,,,0.00,weatherlink.com 1.10,2013-06-08 06:28:00,
2013-06-08 02:43:00,76.0,74.0,29.88,SSW,209,10.0,15.0,93,0.00,,,0.00,weatherlink.com 1.10,2013-06-08 06:43:00,
2013-06-08 02:58:00,76.1,74.0,29.88,WSW,242,4.0,17.0,93,0.00,,,0.00,weatherlink.com 1.10,2013-06-08 06:58:00,
2013-06-08 03:13:00,76.1,74.0,29.88,SW,222,5.0,16.0,93,0.00,,,0.00,weatherlink.com 1.10,2013-06-08 07:13:00,
2013-06-08 03:28:00,76.1,74.0,29.88,WSW,249,7.0,17.0,94,0.00,,,0.00,weatherlink.com 1.10,2013-06-08 07:28:00,
2013-06-08 03:43:00,76.2,74.0,29.89,WSW,244,6.0,17.0,93,0.00,,,0.00,weatherlink.com 1.10,2013-06-08 07:43:00,
2013-06-08 03:58:00,76.2,74.0,29.89,WSW,250,12.0,15.0,94,0.00,,,0.00,weatherlink.com 1.10,2013-06-08 07:58:00,
2013-06-08 04:13:00,76.3,74.0,29.89,WSW,246,6.0,18.0,93,0.00,,,0.00,weatherlink.com 1.10,2013-06-08 08:13:00,
2013-06-08 04:28:00,76.4,74.0,29.89,SW,233,10.0,17.0,93,0.00,,,0.00,weatherlink.com 1.10,2013-06-08 08:28:00,
2013-06-08 04:43:00,76.4,75.0,29.89,West,275,3.0,15.0,94,0.00,,,0.00,weatherlink.com 1.10,2013-06-08 08:43:00,
2013-06-08 04:58:00,76.3,75.0,29.89,WSW,257,6.0,15.0,94,0.00,,,0.00,weatherlink.com 1.10,2013-06-08 08:58:00,
2013-06-08 05:13:00,76.2,74.0,29.89,WSW,242,12.0,14.0,94,0.00,,,0.00,weatherlink.com 1.10,2013-06-08 09:13:00,
2013-06-08 05:28:00,76.2,74.0,29.90,West,259,2.0,13.0,94,0.00,,,0.00,weatherlink.com 1.10,2013-06-08 09:28:00,
2013-06-08 05:43:00,76.4,75.0,29.90,WSW,246,4.0,13.0,95,0.00,,,0.00,weatherlink.com 1.10,2013-06-08 09:43:00,
2013-06-08 05:58:00,76.5,75.0,29.90,WSW,242,10.0,14.0,95,0.00,,,0.00,weatherlink.com 1.10,2013-06-08 09:58:00,
2013-06-08 06:13:00,74.3,73.0,29.90,WNW,289,6.0,20.0,94,0.01,,,0.01,weatherlink.com 1.10,2013-06-08 10:13:00,
2013-06-08 06:29:00,75.8,75.0,29.90,West,261,5.0,13.0,96,0.01,,,0.01,weatherlink.com 1.10,2013-06-08 10:29:00,
2013-06-08 06:44:00,76.4,75.0,29.91,WSW,237,7.0,18.0,95,0.02,,,0.02,weatherlink.com 1.10,2013-06-08 10:44:00,
2013-06-08 06:59:00,75.6,74.0,29.93,West,266,6.0,14.0,95,0.02,,,0.02,weatherlink.com 1.10,2013-06-08 10:59:00,
2013-06-08 07:14:00,75.9,74.0,29.93,West,267,6.0,19.0,94,0.01,,,0.02,weatherlink.com 1.10,2013-06-08 11:14:00,
2013-06-08 07:29:00,76.6,75.0,29.93,WSW,252,9.0,17.0,94,0.02,,,0.03,weatherlink.com 1.10,2013-06-08 11:29:00,
2013-06-08 07:44:00,76.7,75.0,29.93,WSW,253,4.0,13.0,94,0.01,,,0.03,weatherlink.com 1.10,2013-06-08 11:44:00,
2013-06-08 07:59:00,77.2,75.0,29.93,WSW,251,5.0,13.0,94,0.02,,,0.04,weatherlink.com 1.10,2013-06-08 11:59:00,
2013-06-08 08:14:00,77.3,76.0,29.94,SW,228,6.0,15.0,94,0.02,,,0.04,weatherlink.com 1.10,2013-06-08 12:14:00,
2013-06-08 08:29:00,77.1,75.0,29.94,West,267,11.0,13.0,94,0.01,,,0.04,weatherlink.com 1.10,2013-06-08 12:29:00,
2013-06-08 08:59:00,77.5,76.0,29.96,West,261,6.0,15.0,94,0.01,,,0.05,weatherlink.com 1.10,2013-06-08 12:59:00,
2013-06-08 09:14:00,78.0,76.0,29.96,WSW,242,5.0,14.0,94,0.02,,,0.06,weatherlink.com 1.10,2013-06-08 13:14:00,
2013-06-08 09:29:00,77.9,76.0,29.97,SSW,209,6.0,14.0,93,0.02,,,0.06,weatherlink.com 1.10,2013-06-08 13:29:00,
2013-06-08 09:44:00,78.1,76.0,29.97,WSW,254,7.0,15.0,93,0.01,,,0.06,weatherlink.com 1.10,2013-06-08 13:44:00,
2013-06-08 09:59:00,78.2,76.0,29.97,WSW,242,7.0,15.0,93,0.02,,,0.07,weatherlink.com 1.10,2013-06-08 13:59:00,
2013-06-08 10:14:00,78.4,76.0,29.97,West,259,7.0,15.0,92,0.01,,,0.07,weatherlink.com 1.10,2013-06-08 14:14:00,
2013-06-08 10:29:00,78.6,76.0,29.97,WSW,248,14.0,18.0,91,0.02,,,0.08,weatherlink.com 1.10,2013-06-08 14:29:00,
2013-06-08 10:44:00,78.8,76.0,29.98,SW,227,6.0,15.0,90,0.02,,,0.08,weatherlink.com 1.10,2013-06-08 14:44:00,
2013-06-08 10:59:00,78.5,75.0,29.98,SSW,212,11.0,15.0,90,0.01,,,0.08,weatherlink.com 1.10,2013-06-08 14:59:00,
2013-06-08 11:14:00,78.7,76.0,29.98,SW,229,16.0,16.0,90,0.02,,,0.09,weatherlink.com 1.10,2013-06-08 15:14:00,
2013-06-08 11:29:00,78.5,75.0,29.98,SW,234,10.0,16.0,90,0.01,,,0.09,weatherlink.com 1.10,2013-06-08 15:29:00,
2013-06-08 11:44:00,78.0,75.0,29.98,SW,227,19.0,20.0,90,0.02,,,0.10,weatherlink.com 1.10,2013-06-08 15:44:00,
2013-06-08 11:59:00,77.8,75.0,29.98,SSW,212,15.0,21.0,91,0.02,,,0.10,weatherlink.com 1.10,2013-06-08 15:59:00,
2013-06-08 12:14:00,77.8,75.0,29.99,SW,234,13.0,23.0,91,0.01,,,0.10,weatherlink.com 1.10,2013-06-08 16:14:00,
2013-06-08 12:29:00,77.7,75.0,29.98,SW,217,13.0,22.0,91,0.02,,,0.11,weatherlink.com 1.10,2013-06-08 16:29:00,
2013-06-08 12:44:00,77.6,75.0,29.98,SSW,207,16.0,24.0,91,0.01,,,0.11,weatherlink.com 1.10,2013-06-08 16:44:00,
2013-06-08 12:59:00,77.6,75.0,29.97,WSW,257,18.0,26.0,91,0.02,,,0.12,weatherlink.com 1.10,2013-06-08 16:59:00,
2013-06-08 13:14:00,77.6,75.0,29.97,SW,221,23.0,28.0,91,0.02,,,0.12,weatherlink.com 1.10,2013-06-08 17:14:00,
2013-06-08 13:29:00,77.9,75.0,29.97,SW,217,11.0,26.0,91,0.01,,,0.12,weatherlink.com 1.10,2013-06-08 17:29:00,
2013-06-08 13:44:00,77.9,75.0,29.97,SW,226,14.0,27.0,91,0.01,,,0.12,weatherlink.com 1.10,2013-06-08 17:44:00,
2013-06-08 13:59:00,78.2,75.0,29.97,SSW,198,9.0,23.0,91,0.01,,,0.13,weatherlink.com 1.10,2013-06-08 17:59:00,
2013-06-08 14:14:00,78.6,76.0,29.97,SSW,210,15.0,18.0,90,0.01,,,0.13,weatherlink.com 1.10,2013-06-08 18:14:00,
2013-06-08 14:29:00,78.7,76.0,29.97,SW,217,5.0,22.0,90,0.02,,,0.14,weatherlink.com 1.10,2013-06-08 18:29:00,
2013-06-08 14:44:00,78.9,76.0,29.98,SSW,207,4.0,22.0,90,0.02,,,0.14,weatherlink.com 1.10,2013-06-08 18:44:00,
2013-06-08 14:59:00,78.9,76.0,29.97,SW,228,11.0,22.0,90,0.01,,,0.14,weatherlink.com 1.10,2013-06-08 18:59:00,
2013-06-08 15:14:00,79.4,76.0,29.98,WSW,257,11.0,17.0,89,0.01,,,0.14,weatherlink.com 1.10,2013-06-08 19:14:00,
2013-06-08 15:29:00,79.6,76.0,29.98,SW,223,6.0,19.0,88,0.01,,,0.15,weatherlink.com 1.10,2013-06-08 19:29:00,
2013-06-08 15:44:00,79.6,76.0,29.97,WSW,238,8.0,18.0,88,0.01,,,0.15,weatherlink.com 1.10,2013-06-08 19:44:00,
2013-06-08 15:59:00,79.7,76.0,29.98,West,261,9.0,19.0,88,0.01,,,0.15,weatherlink.com 1.10,2013-06-08 19:59:00,
2013-06-08 16:14:00,79.4,76.0,29.98,WSW,242,15.0,20.0,88,0.01,,,0.15,weatherlink.com 1.10,2013-06-08 20:14:00,
2013-06-08 16:29:00,79.5,76.0,29.98,WSW,250,9.0,18.0,88,0.01,,,0.16,weatherlink.com 1.10,2013-06-08 20:29:00,
2013-06-08 16:44:00,79.5,75.0,29.98,West,264,8.0,18.0,87,0.01,,,0.16,weatherlink.com 1.10,2013-06-08 20:44:00,
2013-06-08 16:59:00,78.9,76.0,29.98,SW,224,7.0,17.0,89,0.01,,,0.16,weatherlink.com 1.10,2013-06-08 20:59:00,
2013-06-08 17:14:00,78.5,75.0,29.98,WSW,245,12.0,17.0,90,0.01,,,0.16,weatherlink.com 1.10,2013-06-08 21:14:00,
2013-06-08 17:29:00,78.4,76.0,29.98,WSW,244,11.0,14.0,91,0.00,,,0.16,weatherlink.com 1.10,2013-06-08 21:29:00,
2013-06-08 17:44:00,78.1,75.0,29.99,WSW,240,11.0,17.0,91,0.00,,,0.16,weatherlink.com 1.10,2013-06-08 21:44:00,
2013-06-08 17:59:00,78.0,75.0,29.99,West,273,9.0,14.0,91,0.00,,,0.16,weatherlink.com 1.10,2013-06-08 21:59:00,
2013-06-08 18:14:00,78.0,75.0,30.00,SW,232,14.0,17.0,91,0.00,,,0.16,weatherlink.com 1.10,2013-06-08 22:14:00,
2013-06-08 18:29:00,78.0,75.0,30.00,SW,219,7.0,16.0,91,0.00,,,0.16,weatherlink.com 1.10,2013-06-08 22:29:00,
2013-06-08 18:44:00,77.9,75.0,30.01,SW,236,10.0,13.0,91,0.00,,,0.16,weatherlink.com 1.10,2013-06-08 22:44:00,
2013-06-08 18:59:00,77.7,75.0,30.01,WSW,250,12.0,15.0,92,0.00,,,0.16,weatherlink.com 1.10,2013-06-08 22:59:00,
2013-06-08 19:14:00,77.3,75.0,30.02,WSW,248,16.0,19.0,92,0.00,,,0.16,weatherlink.com 1.10,2013-06-08 23:14:00,
2013-06-08 19:29:00,77.2,75.0,30.03,WSW,257,11.0,15.0,93,0.00,,,0.16,weatherlink.com 1.10,2013-06-08 23:29:00,
2013-06-08 19:44:00,77.1,75.0,30.03,SW,235,7.0,16.0,93,0.00,,,0.16,weatherlink.com 1.10,2013-06-08 23:44:00,
2013-06-08 20:00:00,77.0,75.0,30.04,West,266,7.0,19.0,93,0.00,,,0.16,weatherlink.com 1.10,2013-06-09 00:00:00,
2013-06-08 20:15:00,76.9,75.0,30.04,WSW,256,8.0,15.0,94,0.00,,,0.16,weatherlink.com 1.10,2013-06-09 00:15:00,
2013-06-08 20:30:00,76.8,75.0,30.05,WSW,257,9.0,16.0,94,0.00,,,0.16,weatherlink.com 1.10,2013-06-09 00:30:00,
2013-06-08 20:45:00,76.6,75.0,30.05,SSW,197,5.0,14.0,94,0.00,,,0.16,weatherlink.com 1.10,2013-06-09 00:45:00,
2013-06-08 21:00:00,76.6,75.0,30.06,SW,236,4.0,16.0,94,0.00,,,0.16,weatherlink.com 1.10,2013-06-09 01:00:00,
2013-06-08 21:15:00,76.5,75.0,30.06,West,276,12.0,15.0,94,0.00,,,0.16,weatherlink.com 1.10,2013-06-09 01:15:00,
2013-06-08 21:30:00,76.5,75.0,30.07,WSW,253,6.0,15.0,94,0.00,,,0.16,weatherlink.com 1.10,2013-06-09 01:30:00,
2013-06-08 21:45:00,76.5,75.0,30.08,WSW,238,9.0,15.0,95,0.00,,,0.16,weatherlink.com 1.10,2013-06-09 01:45:00,
2013-06-08 22:00:00,76.5,75.0,30.08,WSW,244,6.0,14.0,95,0.00,,,0.16,weatherlink.com 1.10,2013-06-09 02:00:00,
2013-06-08 22:15:00,76.5,75.0,30.09,WSW,248,14.0,15.0,95,0.00,,,0.16,weatherlink.com 1.10,2013-06-09 02:15:00,
2013-06-08 22:30:00,76.4,75.0,30.09,WSW,250,8.0,11.0,95,0.00,,,0.16,weatherlink.com 1.10,2013-06-09 02:30:00,
2013-06-08 22:45:00,76.3,75.0,30.09,WSW,253,7.0,12.0,95,0.00,,,0.16,weatherlink.com 1.10,2013-06-09 02:45:00,
2013-06-08 23:00:00,76.3,75.0,30.09,WNW,301,3.0,10.0,95,0.00,,,0.16,weatherlink.com 1.10,2013-06-09 03:00:00,
2013-06-08 23:15:00,76.3,75.0,30.10,SW,229,7.0,9.0,95,0.00,,,0.16,weatherlink.com 1.10,2013-06-09 03:15:00,
2013-06-08 23:30:00,76.3,75.0,30.10,SW,236,7.0,8.0,95,0.00,,,0.16,weatherlink.com 1.10,2013-06-09 03:30:00,
2013-06-08 23:45:00,76.2,75.0,30.10,West,265,8.0,11.0,95,0.00,,,0.16,weatherlink.com 1.10,2013-06-09 03:45:00,